| time (UTC) | temp F | wind direction | speed MPH | gust MPH | rain 1hr in | rain 24hr in | rain mn in | humidity % | barometer mb |
| 20260903134601 | 81 | 212 | 3.0 | 6.0 | 0.00 | 0.00 | 0.00 | 82 | 1017.5 |
| 20260903133052 | 80 | 219 | 2.0 | 5.0 | 0.00 | 0.00 | 0.00 | 85 | 1017.5 |
| 20260903131603 | 78 | 221 | 2.0 | 3.0 | 0.00 | 0.00 | 0.00 | 87 | 1017.6 |
| 20260903130045 | 77 | 203 | 2.0 | 5.0 | 0.00 | 0.00 | 0.00 | 90 | 1017.7 |
| 20260903124541 | 74 | 198 | 1.0 | 3.0 | 0.00 | 0.00 | 0.00 | 94 | 1017.7 |
| 20260903123041 | 72 | 55 | 0.0 | 1.0 | 0.00 | 0.00 | 0.00 | 96 | 1017.7 |
| 20260903121551 | 71 | 54 | 0.0 | 0.0 | 0.00 | 0.00 | 0.00 | 96 | 1017.7 |
| 20260903120030 | 71 | 54 | 0.0 | 1.0 | 0.00 | 0.00 | 0.00 | 96 | 1017.7 |
| 20260903114527 | 70 | 54 | 0.0 | 0.0 | 0.00 | 0.00 | 0.00 | 95 | 1017.6 |
| 20260903113024 | 70 | 54 | 0.0 | 0.0 | 0.00 | 0.00 | 0.00 | 94 | 1017.5 |
| 20260903111524 | 71 | 54 | 0.0 | 0.0 | 0.00 | 0.00 | 0.00 | 94 | 1017.3 |
| 20260903110020 | 71 | 54 | 0.0 | 1.0 | 0.00 | 0.00 | 0.00 | 94 | 1017.1 |
| 20260903104528 | 72 | 174 | 1.0 | 2.0 | 0.00 | 0.00 | 0.00 | 94 | 1017.0 |
| 20260903103017 | 71 | 174 | 1.0 | 3.0 | 0.00 | 0.00 | 0.00 | 94 | 1017.0 |
| 20260903101517 | 72 | 322 | 0.0 | 0.0 | 0.00 | 0.00 | 0.00 | 94 | 1016.9 |
| 20260903100034 | 71 | 324 | 0.0 | 1.0 | 0.00 | 0.00 | 0.00 | 94 | 1016.8 |
| 20260903094516 | 72 | 324 | 0.0 | 0.0 | 0.00 | 0.00 | 0.00 | 93 | 1016.7 |
| 20260903093022 | 72 | 332 | 0.0 | 0.0 | 0.00 | 0.00 | 0.00 | 94 | 1016.7 |
| 20260903091514 | 72 | 332 | 0.0 | 2.0 | 0.00 | 0.00 | 0.00 | 93 | 1016.9 |
| 20260903090015 | 72 | 203 | 0.0 | 3.0 | 0.00 | 0.00 | 0.00 | 94 | 1016.8 |
| 20260903084517 | 71 | 210 | 0.0 | 2.0 | 0.00 | 0.00 | 0.00 | 95 | 1016.8 |
| 20260903083013 | 71 | 210 | 0.0 | 1.0 | 0.00 | 0.00 | 0.00 | 95 | 1016.8 |
| 20260903081516 | 71 | 210 | 0.0 | 0.0 | 0.00 | 0.00 | 0.00 | 94 | 1016.7 |
| 20260903080009 | 72 | 209 | 0.0 | 0.0 | 0.00 | 0.00 | 0.00 | 93 | 1016.8 |
| 20260903074508 | 72 | 209 | 0.0 | 0.0 | 0.00 | 0.00 | 0.00 | 93 | 1016.8 |
| 20260903073016 | 73 | 209 | 0.0 | 1.0 | 0.00 | 0.00 | 0.00 | 92 | 1016.8 |
| 20260903071503 | 73 | 209 | 0.0 | 0.0 | 0.00 | 0.00 | 0.00 | 91 | 1016.7 |
| 20260903064557 | 74 | 209 | 0.0 | 0.0 | 0.00 | 0.00 | 0.00 | 90 | 1016.7 |
| 20260903063054 | 75 | 209 | 0.0 | 0.0 | 0.00 | 0.00 | 0.00 | 88 | 1016.7 |
| 20260903061559 | 76 | 209 | 0.0 | 3.0 | 0.00 | 0.00 | 0.00 | 88 | 1016.7 |
| 20260903060103 | 76 | 200 | 1.0 | 4.0 | 0.00 | 0.00 | 0.00 | 89 | 1016.7 |
| 20260903054552 | 75 | 205 | 1.0 | 4.0 | 0.00 | 0.00 | 0.00 | 90 | 1016.7 |
| 20260903053053 | 76 | 207 | 0.0 | 3.0 | 0.00 | 0.00 | 0.00 | 89 | 1016.6 |
| 20260903051549 | 76 | 207 | 1.0 | 3.0 | 0.00 | 0.00 | 0.00 | 89 | 1016.6 |
| 20260903050048 | 76 | 208 | 1.0 | 4.0 | 0.00 | 0.00 | 0.00 | 89 | 1016.6 |
| 20260903044545 | 76 | 210 | 0.0 | 4.0 | 0.00 | 0.00 | 0.00 | 89 | 1016.4 |
| 20260903043044 | 76 | 216 | 1.0 | 3.0 | 0.00 | 0.00 | 0.00 | 89 | 1016.3 |
| 20260903041545 | 76 | 217 | 1.0 | 5.0 | 0.00 | 0.00 | 0.00 | 89 | 1016.3 |
| 20260903040041 | 76 | 199 | 1.0 | 4.0 | 0.00 | 0.00 | 0.00 | 90 | 1016.4 |
| 20260903034539 | 76 | 202 | 1.0 | 3.0 | 0.00 | 0.00 | 0.00 | 90 | 1016.4 |
| 20260903033043 | 76 | 202 | 0.0 | 4.0 | 0.00 | 0.00 | 0.00 | 91 | 1016.5 |
| 20260903031542 | 76 | 206 | 0.0 | 2.0 | 0.00 | 0.00 | 0.00 | 91 | 1016.6 |
| 20260903030048 | 76 | 206 | 0.0 | 2.0 | 0.00 | 0.00 | 0.00 | 90 | 1016.6 |
| 20260903024537 | 76 | 206 | 0.0 | 2.0 | 0.00 | 0.00 | 0.00 | 90 | 1016.7 |
| 20260903023037 | 77 | 206 | 0.0 | 2.0 | 0.00 | 0.00 | 0.00 | 89 | 1016.7 |
| 20260903021544 | 78 | 206 | 1.0 | 2.0 | 0.00 | 0.00 | 0.00 | 87 | 1016.7 |
| 20260903020037 | 79 | 206 | 1.0 | 3.0 | 0.00 | 0.00 | 0.00 | 86 | 1016.7 |
| 20260903014542 | 79 | 207 | 1.0 | 4.0 | 0.00 | 0.00 | 0.00 | 85 | 1016.7 |
| 20260903013035 | 80 | 208 | 1.0 | 4.0 | 0.00 | 0.00 | 0.00 | 85 | 1016.5 |
| 20260903011545 | 80 | 209 | 3.0 | 6.0 | 0.00 | 0.00 | 0.00 | 84 | 1016.4 |
| 20260903010035 | 81 | 212 | 3.0 | 5.0 | 0.00 | 0.00 | 0.00 | 83 | 1016.3 |
| 20260903004536 | 82 | 203 | 2.0 | 4.0 | 0.00 | 0.00 | 0.00 | 82 | 1016.2 |
| 20260903003032 | 82 | 218 | 2.0 | 4.0 | 0.00 | 0.00 | 0.00 | 81 | 1016.2 |
| 20260903001532 | 83 | 224 | 2.0 | 5.0 | 0.00 | 0.00 | 0.00 | 80 | 1016.1 |
| 20260903000042 | 84 | 206 | 1.0 | 4.0 | 0.00 | 0.00 | 0.00 | 78 | 1016.1 |
| 20260902234530 | 86 | 209 | 4.0 | 6.0 | 0.00 | 0.00 | 0.00 | 75 | 1016.1 |
| 20260902233044 | 87 | 201 | 3.0 | 6.0 | 0.00 | 0.00 | 0.00 | 73 | 1016.0 |
| 20260902231530 | 88 | 215 | 3.0 | 7.0 | 0.00 | 0.00 | 0.00 | 72 | 1016.0 |
| 20260902230029 | 89 | 213 | 5.0 | 8.0 | 0.00 | 0.00 | 0.00 | 68 | 1016.0 |
| 20260902224529 | 89 | 198 | 4.0 | 13.0 | 0.00 | 0.00 | 0.00 | 67 | 1016.1 |
| 20260902223028 | 90 | 223 | 6.0 | 10.0 | 0.00 | 0.00 | 0.00 | 66 | 1016.0 |
| 20260902221527 | 90 | 205 | 5.0 | 13.0 | 0.00 | 0.00 | 0.00 | 67 | 1016.1 |
| 20260902220041 | 90 | 226 | 6.0 | 12.0 | 0.00 | 0.00 | 0.00 | 65 | 1016.1 |
| 20260902214545 | 91 | 215 | 7.0 | 16.0 | 0.00 | 0.00 | 0.00 | 63 | 1016.2 |
| 20260902213024 | 91 | 198 | 7.0 | 14.0 | 0.00 | 0.00 | 0.00 | 64 | 1016.2 |
| 20260902211524 | 91 | 215 | 8.0 | 14.0 | 0.00 | 0.00 | 0.00 | 64 | 1016.2 |
| 20260902210025 | 91 | 195 | 4.0 | 12.0 | 0.00 | 0.00 | 0.00 | 64 | 1016.3 |
| 20260902204521 | 92 | 212 | 8.0 | 17.0 | 0.00 | 0.00 | 0.00 | 62 | 1016.4 |
| 20260902203020 | 92 | 215 | 5.0 | 12.0 | 0.00 | 0.00 | 0.00 | 62 | 1016.6 |
| 20260902201531 | 91 | 201 | 10.0 | 16.0 | 0.00 | 0.00 | 0.00 | 63 | 1016.7 |
| 20260902200015 | 91 | 209 | 6.0 | 15.0 | 0.00 | 0.00 | 0.00 | 63 | 1016.8 |
| 20260902194513 | 91 | 210 | 8.0 | 14.0 | 0.00 | 0.00 | 0.00 | 64 | 1017.0 |
| 20260902193012 | 91 | 257 | 10.0 | 16.0 | 0.00 | 0.00 | 0.00 | 62 | 1017.2 |
| 20260902191517 | 91 | 191 | 6.0 | 14.0 | 0.00 | 0.00 | 0.00 | 64 | 1017.3 |
| 20260902190009 | 91 | 201 | 5.0 | 12.0 | 0.00 | 0.00 | 0.00 | 64 | 1017.3 |
| 20260902184513 | 91 | 216 | 6.0 | 14.0 | 0.00 | 0.00 | 0.00 | 63 | 1017.5 |
| 20260902183013 | 91 | 236 | 6.0 | 14.0 | 0.00 | 0.00 | 0.00 | 63 | 1017.6 |
| 20260902181507 | 90 | 256 | 7.0 | 11.0 | 0.00 | 0.00 | 0.00 | 63 | 1017.7 |
| 20260902180006 | 90 | 272 | 6.0 | 10.0 | 0.00 | 0.00 | 0.00 | 66 | 1017.8 |
| 20260902174502 | 90 | 218 | 7.0 | 13.0 | 0.00 | 0.00 | 0.00 | 65 | 1017.9 |
| 20260902173002 | 90 | 213 | 8.0 | 12.0 | 0.00 | 0.00 | 0.00 | 66 | 1018.1 |
| 20260902171610 | 89 | 272 | 5.0 | 10.0 | 0.00 | 0.00 | 0.00 | 66 | 1018.1 |
| 20260902170059 | 89 | 247 | 7.0 | 12.0 | 0.00 | 0.00 | 0.00 | 65 | 1018.2 |
| 20260902164557 | 89 | 267 | 6.0 | 13.0 | 0.00 | 0.00 | 0.00 | 66 | 1018.3 |
| 20260902163052 | 89 | 213 | 3.0 | 12.0 | 0.00 | 0.00 | 0.00 | 69 | 1018.5 |
| 20260902161548 | 88 | 256 | 4.0 | 10.0 | 0.00 | 0.00 | 0.00 | 72 | 1018.4 |
| 20260902160059 | 87 | 280 | 6.0 | 10.0 | 0.00 | 0.00 | 0.00 | 71 | 1018.5 |
| 20260902154545 | 87 | 266 | 3.0 | 8.0 | 0.00 | 0.00 | 0.00 | 73 | 1018.6 |
| 20260902153042 | 86 | 246 | 4.0 | 10.0 | 0.00 | 0.00 | 0.00 | 72 | 1018.5 |
| 20260902151534 | 86 | 246 | 5.0 | 9.0 | 0.00 | 0.00 | 0.00 | 74 | 1018.5 |
| 20260902150030 | 85 | 228 | 5.0 | 9.0 | 0.00 | 0.00 | 0.00 | 73 | 1018.5 |
| 20260902144526 | 84 | 249 | 3.0 | 12.0 | 0.00 | 0.00 | 0.00 | 75 | 1018.5 |
| 20260902143023 | 83 | 248 | 3.0 | 10.0 | 0.00 | 0.00 | 0.00 | 78 | 1018.6 |
| 20260902141516 | 82 | 284 | 5.0 | 10.0 | 0.00 | 0.00 | 0.00 | 78 | 1018.6 |
| 20260902140012 | 81 | 279 | 4.0 | 9.0 | 0.00 | 0.00 | 0.00 | 80 | 1018.6 |